sat.trackr.live / text

‹ back to catalog

STARLINK-11561 [DTC]

NORAD 62908 · 2025-027B

PAYLOAD ACTIVE UNKNOWN

§ Identity

Operator
Country
US
Launch date
2025-02-08
Launch site
AFETR
Launch vehicle
Mass (kg)
RCS (m²)

Purposes: comms

External: N2YO · Heavens-Above · Gunter

§ Orbital elements

Epoch: 2026-05-24T23:31:58.420128Z

Period
91.67 min
Inclination
43.0008°
Eccentricity
0.0001236
Mean motion
15.70883824 rev/d
Perigee alt
355.5 km
Apogee alt
357.2 km
Semi-major
6,734.5 km
B*
1.6245e-3
RAAN
247.5439°
Arg perigee
31.1360°
Mean anomaly
328.9581°
Rev number
7,515

§ Raw data

STARLINK-11561 [DTC]1 62908U 25027B   26144.98053727  .00213843  00000+0  16245-2 0  99992 62908  43.0008 247.5439 0001236  31.1360 328.9581 15.70883824 75152

JSON: /api/v1/satellites/62908 · /tle

For live sub-satellite position, see the globe view (requires WebGL).

§ Visibility from observer

Set your observer location to see the next 7 days of passes ≥ 10°. The values pass through the URL so the page stays shareable.

No JS? Fill the form by hand. The geolocation button needs JavaScript.